Theta_e
344 349 344 346 346 347 346 346 347 345 344 346 347 347 346 346 344 346 343 342 343 344 343 343 342 344 344 344 343 342 341 337 337 338 337 335 333 331 330 334 337 333 338
345 347 345 346 344 346 346 345 344 344 345 345 346 344 345 343 342 345 342 341 341 339 338 337 338 338 337 336 336 337 339 340 341 337 340 343 335 341 332 332 336 332 335
345 346 345 346 346 346 344 345 346 347 346 346 343 342 341 340 341 342 341 338 337 336 335 335 336 335 334 333 334 338 342 342 341 341 341 344 345 337 342 342 338 337 336
345 344 343 345 345 346 345 344 345 345 346 345 344 341 340 340 340 340 339 338 337 335 334 334 334 334 333 332 332 334 337 340 342 342 348 346 343 340 338 340 340 334 333
344 344 344 344 344 345 344 343 344 345 346 346 343 340 340 339 339 339 338 337 336 335 333 333 333 333 333 332 331 330 333 337 341 346 345 346 346 345 336 338 342 337 340
341 341 343 343 343 343 344 344 344 344 345 345 345 341 340 340 339 338 336 335 333 333 332 332 331 331 330 329 329 328 328 331 344 343 344 344 345 345 340 338 338 336 331
341 341 341 342 343 345 343 343 342 342 344 344 342 341 339 338 338 337 336 334 333 332 331 332 332 332 332 331 330 328 328 330 342 343 345 344 345 342 342 340 339 338 336
342 341 342 343 342 343 343 341 342 343 344 343 340 340 339 337 336 334 333 332 332 334 336 336 337 337 337 337 337 336 332 331 342 343 345 344 344 340 342 342 341 339 339
342 342 344 344 343 342 343 341 341 343 342 341 340 338 336 335 333 332 334 337 338 341 341 341 342 342 340 340 340 339 339 338 344 344 345 345 343 338 340 342 342 341 340
342 343 342 343 345 343 344 343 343 341 340 339 338 337 334 332 334 340 340 343 343 342 341 340 339 338 338 336 336 337 338 344 348 346 346 346 340 338 338 338 341 341 340
340 341 342 343 343 344 343 343 342 341 340 339 336 335 335 342 343 342 343 343 341 340 339 338 337 337 338 339 336 336 344 345 347 346 346 345 342 342 340 339 339 339 339
335 338 339 340 341 341 340 342 343 342 341 342 342 344 341 340 341 338 344 343 342 340 342 341 340 342 342 342 342 342 342 343 345 346 345 342 343 342 343 340 339 339 338
332 333 336 339 341 338 338 340 339 340 340 341 341 340 339 337 339 342 344 345 345 342 344 344 343 342 343 342 342 342 342 340 340 341 342 339 337 341 341 342 340 339 339
333 333 333 335 337 338 338 339 342 339 339 338 338 340 342 341 345 345 343 343 342 340 341 341 339 341 341 341 341 341 340 339 338 340 341 342 339 337 337 341 342 342 340
334 334 335 338 341 342 344 342 341 339 337 337 338 340 343 345 345 343 343 342 341 340 339 340 339 339 340 340 339 339 338 338 339 339 339 340 340 342 342 340 342 343 342
334 335 337 341 343 344 341 339 338 337 336 336 335 334 336 338 338 338 338 338 337 336 335 335 335 336 338 339 338 339 340 340 341 342 339 338 341 341 345 342 343 343 344
333 332 334 337 337 337 336 334 333 333 333 332 330 329 329 331 332 334 334 333 331 331 330 331 332 333 334 336 335 335 336 338 340 342 342 343 342 344 347 345 346 345 345
329 330 329 331 334 333 331 331 331 330 328 327 326 325 324 324 325 327 328 326 325 326 325 325 326 328 329 329 327 327 328 332 336 340 345 346 345 345 343 346 346 347 346
328 328 329 330 330 329 327 328 327 326 325 323 323 322 320 319 320 321 321 320 319 320 319 318 319 318 318 316 314 317 322 328 337 338 337 337 337 338 339 340 342 342 341
326 327 328 328 327 327 326 326 324 322 321 319 318 317 316 315 315 317 316 315 314 313 312 312 315 314 313 312 315 319 329 330 335 333 333 328 324 320 319 323 329 331 332
323 325 327 327 326 326 326 326 325 322 317 314 312 310 310 309 309 311 311 311 310 310 310 311 313 312 311 311 316 321 331 330 329 328 324 320 315 313 314 316 313 313 316
323 324 325 326 325 325 325 324 322 317 311 310 309 308 309 309 309 309 309 308 309 308 308 308 310 311 310 309 312 319 321 326 320 319 318 315 311 309 310 310 311 312 313
320 321 322 323 324 323 321 319 317 314 312 309 308 308 306 306 307 307 307 307 306 306 305 306 307 308 308 308 308 312 317 317 312 314 314 311 308 309 309 308 309 311 312
318 318 319 320 321 320 319 319 319 320 316 312 308 307 305 305 304 305 305 305 306 304 304 304 305 305 307 306 307 308 309 309 311 312 310 309 307 308 307 308 308 309 309
316 316 317 317 317 317 317 317 317 314 311 308 307 307 306 305 304 304 305 305 305 304 303 303 304 304 304 304 305 305 306 308 306 308 311 308 307 307 306 307 307 308 307
314 314 314 314 313 313 312 312 311 311 309 309 308 307 306 305 304 304 304 304 304 303 303 302 302 303 303 304 304 304 304 305 305 305 307 306 306 306 306 306 307 306 306
Wind_Speed
13 14 13 14 13 13 13 14 15 15 15 15 16 16 16 16 17 17 17 17 16 16 15 14 13 13 13 12 12 12 11 11 11 11 10 11 11 11 11 12 10 9 9
17 15 14 14 14 13 13 15 14 16 15 14 15 15 16 16 16 16 16 15 14 13 13 12 11 11 11 11 11 10 9 8 7 7 7 7 10 8 9 12 11 9 10
17 16 13 14 14 14 14 15 15 13 13 13 14 14 14 14 14 14 14 13 12 11 11 10 10 10 10 10 10 10 9 8 5 5 6 2 7 7 7 8 8 9 8
16 15 13 14 14 14 15 15 16 15 13 11 12 12 12 12 11 11 11 10 10 9 9 8 9 9 9 9 10 9 9 8 7 6 2 3 4 4 5 5 6 6 7
16 14 13 13 15 13 15 15 15 14 12 10 10 10 10 9 9 8 8 7 7 7 7 7 7 7 8 9 9 9 8 8 8 6 4 2 2 2 2 3 4 5 6
16 14 13 13 14 12 13 14 14 13 10 8 7 7 7 7 6 5 5 5 6 6 6 6 7 8 8 9 9 9 8 7 4 5 4 3 1 3 1 1 4 3 2
14 13 13 13 11 12 11 12 12 11 9 7 6 5 4 4 3 4 4 4 5 6 6 6 7 8 8 8 8 8 8 7 6 5 4 2 1 4 3 3 3 3 2
15 13 12 12 11 10 10 12 11 9 7 6 5 4 2 1 2 2 3 4 5 5 5 6 6 7 7 7 8 8 7 7 6 4 3 2 3 2 4 5 6 5 5
13 11 10 10 10 11 9 9 9 9 8 6 4 3 2 1 0 2 4 4 5 6 6 6 6 6 6 7 7 6 6 6 4 3 3 2 6 4 4 6 7 8 8
11 10 10 9 9 9 9 9 8 9 8 6 5 4 3 2 4 5 6 8 7 6 5 5 5 5 4 5 5 6 5 4 4 4 3 2 6 4 5 6 6 7 8
10 10 10 10 10 9 9 8 7 7 6 5 3 4 1 2 3 3 5 6 7 7 8 8 8 8 7 8 7 8 6 3 3 3 3 6 7 6 5 6 6 8 9
12 12 11 10 10 10 9 8 7 8 6 5 4 4 3 4 4 4 3 5 5 5 6 6 7 8 7 5 5 6 5 6 4 5 5 7 7 7 9 8 8 8 9
12 10 10 10 10 10 9 8 8 7 7 5 4 3 5 4 5 4 5 4 4 6 4 6 6 5 6 7 7 7 8 8 8 8 5 10 9 8 8 10 10 10 12
12 9 9 9 9 10 9 8 7 7 7 6 3 2 3 4 4 3 4 5 5 6 7 7 7 7 7 7 8 8 9 10 10 10 10 12 12 10 11 12 13 14 14
11 9 9 9 9 10 9 6 6 6 6 5 4 1 2 3 3 2 2 3 4 6 7 8 8 9 9 8 8 8 9 10 10 11 12 14 16 14 12 12 12 17 18
10 8 7 7 7 7 8 8 7 6 5 5 4 3 3 2 1 1 2 3 4 6 7 8 9 10 9 9 9 10 10 10 9 10 11 13 15 14 13 11 11 15 17
8 7 7 7 8 8 9 10 8 7 7 6 6 7 6 4 3 2 1 3 5 7 8 9 10 10 10 11 11 11 11 10 10 9 10 11 11 9 6 7 6 9 13
8 8 7 8 8 9 9 9 9 7 7 7 6 6 7 6 5 4 2 4 6 7 8 10 11 12 11 11 12 11 11 9 8 7 3 1 3 2 7 5 6 1 1
8 8 9 9 9 10 9 8 9 9 7 6 6 5 6 6 6 4 4 5 7 7 8 9 8 9 9 11 12 8 7 4 2 5 6 5 5 4 6 5 3 4 2
9 8 9 9 10 10 9 9 8 7 7 6 5 5 6 5 6 4 5 6 6 5 6 8 6 8 8 11 9 5 4 3 4 5 5 7 9 11 12 13 10 9 9
10 10 10 11 10 9 9 9 8 6 6 6 6 7 6 7 7 7 5 6 7 8 9 11 5 8 10 14 5 1 3 4 4 5 6 8 12 12 12 12 14 13 11
12 11 11 12 12 10 8 7 6 8 7 7 8 7 8 10 10 9 8 9 9 8 11 12 12 6 9 16 9 5 1 6 4 5 6 8 13 12 12 13 13 12 12
13 11 11 12 12 10 10 9 10 9 8 7 7 5 10 10 11 11 9 9 12 9 10 12 11 11 8 11 19 8 2 4 11 3 5 9 15 12 12 14 14 13 13
14 12 11 10 11 10 10 10 10 7 7 6 6 7 9 9 11 10 8 9 15 9 10 9 10 12 10 11 8 12 11 8 4 4 5 8 17 12 15 12 14 12 13
16 14 13 12 11 10 9 8 9 8 12 9 9 9 9 10 10 8 9 11 10 8 10 11 12 13 12 11 11 9 8 4 9 4 6 17 17 14 17 10 13 11 14
18 16 15 14 13 12 11 10 10 12 10 10 9 7 7 7 8 8 9 9 9 9 9 10 12 13 12 12 10 11 11 9 9 8 8 13 17 13 15 14 10 12 14
Wind_Direction
147 142 145 140 137 132 134 134 129 131 128 122 117 115 109 107 106 100 99 97 90 84 80 76 73 69 68 65 61 60 60 63 63 64 64 63 73 76 75 85 60 73 84
142 145 150 141 140 137 133 131 131 128 127 123 119 116 114 111 106 101 98 94 87 81 77 73 68 64 60 53 48 44 43 45 50 59 59 53 65 78 73 89 92 81 82
138 144 146 141 141 139 135 131 131 131 125 126 119 118 115 111 106 100 95 89 81 73 67 64 63 58 51 44 41 36 31 28 24 30 59 56 72 74 89 84 83 86 88
139 143 144 145 146 142 138 137 137 134 132 124 120 119 116 111 105 100 93 83 76 65 59 55 51 43 40 32 29 27 26 22 26 47 22 44 60 36 74 95 92 87 87
141 143 150 148 148 149 141 142 144 141 134 131 126 123 119 114 106 97 89 80 71 61 49 38 34 27 24 21 17 15 16 18 38 22 32 17 42 255 49 71 75 76 111
140 142 150 149 146 144 141 145 149 145 137 132 130 127 121 116 110 98 82 67 55 45 36 24 15 9 7 8 3 359 356 359 22 25 23 343 80 266 291 130 176 201 153
140 140 149 146 148 147 149 148 152 153 147 143 140 131 124 113 94 76 57 52 48 31 22 16 0 355 354 352 352 350 347 350 353 15 16 26 65 275 242 234 237 240 230
140 144 150 152 152 148 152 156 156 157 159 161 156 150 149 111 72 49 42 28 22 16 9 355 348 339 340 341 346 346 337 336 333 353 345 349 275 318 239 239 248 247 247
141 143 148 153 156 158 158 165 170 175 171 170 175 191 215 248 334 20 23 3 358 354 347 339 333 332 333 332 332 335 332 332 312 340 333 329 281 292 272 248 248 254 253
138 149 149 156 161 159 167 172 187 190 185 188 194 223 223 329 343 352 33 348 9 17 26 23 19 20 14 359 350 337 330 6 317 344 307 277 302 290 264 263 250 259 263
150 159 160 163 166 162 169 180 187 197 203 200 223 263 302 246 285 325 326 12 33 47 53 53 43 33 37 16 19 17 19 327 324 333 321 302 295 287 277 259 250 255 263
163 167 172 176 176 177 177 179 186 194 194 195 210 222 237 254 260 293 302 351 10 26 26 20 21 27 11 344 339 356 342 334 313 309 307 304 307 288 271 255 237 251 260
160 165 173 178 183 185 181 183 191 198 201 208 215 228 245 249 255 267 278 291 309 329 314 332 326 328 329 323 316 320 320 315 314 312 310 308 307 289 283 262 241 240 245
163 162 171 174 178 183 181 182 190 196 198 198 201 220 240 236 242 254 276 299 317 319 326 326 323 325 324 315 307 303 301 298 296 294 295 298 311 302 285 272 242 240 243
155 158 167 169 172 173 166 169 167 175 179 177 150 131 184 236 242 266 291 315 330 332 330 326 325 327 324 319 315 307 302 296 292 289 286 292 300 302 299 282 252 236 239
149 151 158 162 163 163 149 140 141 140 134 124 101 91 89 146 170 289 322 334 338 339 332 326 322 324 320 314 312 309 306 300 296 292 291 287 294 305 314 302 281 245 248
151 142 147 152 144 143 136 130 133 130 125 112 95 72 57 69 52 73 0 2 345 338 335 328 323 317 311 308 305 303 300 296 295 295 299 290 289 305 332 327 325 291 265
158 152 150 151 146 141 140 132 128 116 112 107 98 77 61 44 38 35 20 7 345 340 336 331 326 320 314 313 309 305 299 297 297 305 306 311 5 278 352 9 82 81 125
165 160 155 153 150 145 135 133 123 117 111 102 94 82 62 47 38 41 17 2 1 347 341 339 333 334 331 327 318 314 319 328 3 31 15 31 33 5 351 348 346 35 116
174 171 172 163 162 154 142 137 131 119 107 96 75 67 72 51 36 53 12 15 24 15 3 1 4 355 352 335 321 324 348 43 84 61 50 39 25 19 9 358 355 358 2
172 183 178 174 176 164 164 168 159 149 121 100 78 58 58 60 51 53 56 49 46 48 42 27 18 17 11 359 348 359 83 99 68 43 27 17 12 6 4 7 1 348 346
180 184 186 183 183 176 176 171 162 150 123 108 91 68 65 66 69 66 73 74 69 43 41 39 33 30 28 24 14 286 315 165 50 9 19 23 10 4 3 0 5 359 354
181 185 185 184 182 180 174 154 140 132 121 107 92 91 73 72 74 73 71 85 73 56 44 43 40 40 41 44 42 22 321 10 333 52 55 24 10 8 5 357 1 8 5
171 169 168 167 171 171 170 171 169 167 150 129 126 113 90 82 73 72 72 68 77 63 57 47 45 50 50 48 56 52 58 37 360 328 358 5 357 0 357 353 353 359 3
163 160 158 157 156 157 162 167 164 154 144 141 131 118 99 79 77 82 75 71 81 79 70 63 57 55 54 55 53 40 37 57 27 333 322 338 344 343 348 349 348 351 350
157 152 147 143 139 139 137 139 143 141 143 142 137 127 118 105 85 78 79 83 91 79 71 63 60 58 57 55 52 47 39 25 7 352 332 327 330 329 330 343 348 344 342